Flag for Canada Weather past 2 weeks in Longueuil, Quebec, Canada

Now
19 °F

Cold.


Feels Like: 19 °F
Forecast: 2 / 26 °F
Wind: 2 mph from Southeast

Location: Mc Tavish

Current Time: Mar 1, 2015 at 12:07:47 PM

Latest Report: Mar 1, 2015 at 11:00 AM


Visibility: N/A

Pressure: 30.47 "Hg

Humidity: 63%

Dew point: 8 °F

Location of LongueuilLocation

Historic Weather in Longueuil — Graph

°F

Longueuil temperature yesterday

Maximum temperature yesterday: 22 °F (at 4:00 PM)
Minimum temperature yesterday: 5 °F (at 6:00 AM)
Average temperature yesterday: 13 °F

Past Weeks' High & Low Weather Summary

 TemperatureHumidityPressure
High26 °F (Feb 22, 7:00 PM)98% (Feb 21, 11:00 PM)30.71 "Hg (Feb 21, 11:00 PM)
Low-9 °F (Feb 16, 7:00 AM)36% (Feb 27, 4:00 PM)29.62 "Hg (Feb 19, 1:00 PM)
Average8 °F62%30.08 "Hg
* Reported Feb 14 11:00 AM — Mar 1 11:00 AM, Longueuil, Weather by CustomWeather, © 2015

Note: Actual official high and low records may vary slightly from our data, if they occured in-between our weather recording intervals... More about our weather records

Advertising

Longueuil weather history for previous 24 hours

 ConditionsComfort  
Time TempWeatherWind HumidityBarometerVisibility
11:00 AM
Sun, Mar 1
19 °FCold.2 mph63%30.47 "HgN/A
10:00 AM16 °FCold.5 mph67%30.50 "HgN/A
9:00 AM17 °FCold.2 mph59%30.54 "HgN/A
8:00 AM15 °FCold.5 mph61%30.57 "HgN/A
7:00 AM13 °FCold.5 mph69%30.59 "HgN/A
6:00 AM13 °FCold.6 mph72%30.60 "HgN/A
5:00 AM8 °FFrigid.3 mph73%30.60 "HgN/A
4:00 AM14 °FCold.3 mph77%30.61 "HgN/A
3:00 AM14 °FCold.3 mph75%30.63 "HgN/A
2:00 AM17 °FCold.3 mph62%30.63 "HgN/A
1:00 AM15 °FCold.6 mph67%30.64 "HgN/A
12:00 AM16 °FCold.6 mph67%30.64 "HgN/A
11:00 PM
Sat, Feb 28
17 °FCold.7 mph67%30.64 "HgN/A
10:00 PM17 °FCold.7 mph65%30.65 "HgN/A
9:00 PM18 °FCold.6 mph66%30.65 "HgN/A
8:00 PM19 °FCold.5 mph62%30.66 "HgN/A
7:00 PM20 °FCold.6 mph57%30.66 "HgN/A
6:00 PM20 °FCold.5 mph54%30.65 "HgN/A
5:00 PM21 °FCold.7 mph56%30.64 "HgN/A
4:00 PM22 °FCold.6 mph54%30.65 "HgN/A
3:00 PM20 °FCold.7 mph54%30.66 "HgN/A
2:00 PM20 °FCold.7 mph54%30.66 "HgN/A
1:00 PM18 °FCold.9 mph58%30.68 "HgN/A
12:00 PM16 °FCold.6 mph58%30.71 "HgN/A
Weather by CustomWeather, © 2015

See weather overviewHow to use our weather pages